| time (UTC) | temp F | wind direction | speed MPH | gust MPH | rain 1hr in | rain 24hr in | rain mn in | humidity % | barometer mb |
| 20260506193215 | 46 | 246 | 10.0 | 0.0 | 0.00 | 0.00 | 0.09 | 93 | 1008.7 |
| 20260506190211 | 47 | 188 | 12.0 | 0.0 | 0.00 | 0.00 | 0.09 | 92 | 1008.2 |
| 20260506183209 | 47 | 200 | 12.0 | 0.0 | 0.00 | 0.00 | 0.09 | 91 | 1007.9 |
| 20260506180216 | 48 | 239 | 12.0 | 0.0 | 0.00 | 0.00 | 0.09 | 91 | 1007.8 |
| 20260506173210 | 49 | 188 | 13.0 | 0.0 | 0.00 | 0.00 | 0.09 | 91 | 1007.3 |
| 20260506170215 | 49 | 240 | 7.0 | 0.0 | 0.00 | 0.00 | 0.09 | 93 | 1006.6 |
| 20260506163210 | 48 | 211 | 11.0 | 0.0 | 0.00 | 0.00 | 0.09 | 93 | 1006.9 |
| 20260506160210 | 48 | 232 | 12.0 | 0.0 | 0.00 | 0.00 | 0.09 | 93 | 1006.7 |
| 20260506153210 | 48 | 234 | 19.0 | 0.0 | 0.00 | 0.00 | 0.06 | 92 | 1006.7 |
| 20260506150210 | 49 | 213 | 28.0 | 0.0 | 0.00 | 0.00 | 0.03 | 91 | 1006.3 |
| 20260506143210 | 52 | 175 | 30.0 | 0.0 | 0.00 | 0.00 | 0.00 | 88 | 1005.4 |
| 20260506140210 | 57 | 248 | 14.0 | 0.0 | 0.00 | 0.00 | 0.00 | 72 | 1004.7 |
| 20260506133211 | 59 | 205 | 10.0 | 0.0 | 0.00 | 0.00 | 0.00 | 71 | 1004.6 |
| 20260506130211 | 59 | 255 | 6.0 | 0.0 | 0.00 | 0.00 | 0.00 | 68 | 1004.4 |
| 20260506123210 | 60 | 186 | 7.0 | 0.0 | 0.00 | 0.00 | 0.00 | 67 | 1004.6 |
| 20260506120210 | 60 | 316 | 5.0 | 0.0 | 0.00 | 0.00 | 0.00 | 68 | 1004.4 |
| 20260506113217 | 60 | 64 | 5.0 | 0.0 | 0.00 | 0.00 | 0.00 | 67 | 1004.6 |
| 20260506110210 | 58 | 135 | 4.0 | 0.0 | 0.00 | 0.00 | 0.00 | 70 | 1004.7 |
| 20260506100213 | 56 | 5 | 3.0 | 0.0 | 0.00 | 0.00 | 0.00 | 75 | 1004.9 |
| 20260506093211 | 56 | 148 | 2.0 | 0.0 | 0.00 | 0.00 | 0.00 | 77 | 1005.2 |
| 20260506090211 | 56 | 220 | 3.0 | 0.0 | 0.00 | 0.00 | 0.00 | 75 | 1005.1 |
| 20260506083211 | 55 | 158 | 4.0 | 0.0 | 0.00 | 0.00 | 0.00 | 86 | 1005.0 |
| 20260506080212 | 53 | 153 | 2.0 | 0.0 | 0.00 | 0.00 | 0.00 | 89 | 1005.1 |
| 20260506073211 | 51 | 166 | 3.0 | 0.0 | 0.00 | 0.00 | 0.00 | 94 | 1005.6 |
| 20260506070212 | 50 | 175 | 3.0 | 0.0 | 0.00 | 0.00 | 0.00 | 97 | 1005.6 |
| 20260506060210 | 47 | 273 | 2.0 | 0.0 | 0.00 | 0.00 | 0.00 | 97 | 1005.3 |
| 20260506050211 | 46 | 268 | 1.0 | 0.0 | 0.00 | 0.00 | 0.00 | 96 | 1005.6 |
| 20260506043211 | 45 | 307 | 3.0 | 0.0 | 0.00 | 0.00 | 0.00 | 96 | 1005.8 |
| 20260506040211 | 46 | 161 | 0.0 | 0.0 | 0.00 | 0.00 | 0.00 | 95 | 1006.1 |
| 20260506033211 | 47 | 148 | 2.0 | 0.0 | 0.00 | 0.00 | 0.00 | 95 | 1006.1 |
| 20260506030212 | 47 | 330 | 1.0 | 0.0 | 0.00 | 0.00 | 0.00 | 94 | 1006.6 |
| 20260506023211 | 48 | 196 | 7.0 | 0.0 | 0.00 | 0.00 | 0.00 | 95 | 1006.7 |
| 20260506020212 | 49 | 163 | 7.0 | 0.0 | 0.00 | 0.00 | 0.00 | 94 | 1006.8 |
| 20260506013211 | 50 | 190 | 6.0 | 0.0 | 0.00 | 0.00 | 0.00 | 94 | 1007.0 |
| 20260506010213 | 50 | 190 | 6.0 | 0.0 | 0.00 | 0.00 | 0.00 | 94 | 1007.3 |
| 20260506003209 | 49 | 171 | 4.0 | 0.0 | 0.00 | 0.00 | 0.00 | 94 | 1007.3 |
| 20260506000211 | 50 | 153 | 4.0 | 0.0 | 0.00 | 0.00 | 0.00 | 93 | 1007.4 |
| 20260505233209 | 50 | 238 | 7.0 | 0.0 | 0.00 | 0.00 | 0.00 | 93 | 1007.6 |
| 20260505230209 | 50 | 172 | 9.0 | 0.0 | 0.00 | 0.00 | 0.00 | 93 | 1007.6 |
| 20260505223210 | 49 | 186 | 6.0 | 0.0 | 0.00 | 0.00 | 0.00 | 93 | 1007.8 |
| 20260505220209 | 50 | 239 | 8.0 | 0.0 | 0.00 | 0.00 | 0.00 | 92 | 1007.8 |
| 20260505213211 | 51 | 240 | 9.0 | 0.0 | 0.00 | 0.00 | 0.02 | 90 | 1008.0 |
| 20260505210215 | 51 | 207 | 15.0 | 0.0 | 0.00 | 0.00 | 0.02 | 89 | 1008.0 |
| 20260505203209 | 52 | 273 | 15.0 | 0.0 | 0.00 | 0.00 | 0.02 | 88 | 1007.6 |
| 20260505200210 | 53 | 193 | 15.0 | 0.0 | 0.00 | 0.00 | 0.02 | 87 | 1007.6 |